Theta_e
292 293 296 294 294 294 294 295 291 296 296 300 306 308 311 313 314 315 315 316 317 318 319 320 321 322 322 322 324 325 325 327 329 330 329 330 329 329 330 331 330 331 331 330
289 293 295 293 295 295 295 295 295 297 297 305 308 310 311 312 313 314 315 316 317 319 320 320 320 320 321 322 323 325 325 327 327 327 327 329 329 330 330 330 331 331 330 329
287 291 293 290 295 296 296 297 297 294 300 305 305 309 313 314 314 316 317 317 318 319 320 320 320 321 321 323 323 323 324 327 326 327 326 328 328 329 329 329 331 331 330 330
288 292 285 295 300 300 297 297 298 300 302 304 307 310 312 317 316 317 318 318 319 320 322 322 322 322 322 324 322 321 322 326 326 326 326 327 328 327 328 329 330 330 330 331
287 290 295 294 295 294 297 294 298 298 300 302 305 310 313 317 318 320 321 321 322 323 324 323 321 322 321 322 321 321 320 325 325 326 326 326 327 327 326 328 329 328 328 330
289 287 286 292 297 300 302 293 299 300 300 301 303 305 311 309 314 319 323 323 322 324 324 323 323 323 321 321 321 320 320 323 325 325 327 327 329 327 326 329 328 325 327 331
287 287 289 296 299 302 294 292 300 301 301 302 301 305 307 310 315 319 323 324 324 323 322 323 324 323 321 321 320 322 322 322 325 326 328 329 329 327 326 326 325 324 325 327
289 287 285 298 297 292 296 301 301 302 303 302 304 306 308 310 313 318 321 322 323 322 323 324 323 323 322 321 323 324 322 321 323 326 326 326 328 327 325 327 324 323 323 323
288 288 296 300 298 301 301 300 300 301 303 305 305 306 308 309 312 317 321 322 323 322 323 323 323 324 323 323 324 322 322 322 323 323 326 327 327 326 323 325 323 322 321 322
291 293 295 298 301 301 301 301 303 303 303 305 305 306 307 310 314 316 320 322 323 323 322 321 322 323 325 324 322 322 322 323 323 322 324 326 326 325 324 322 321 319 320 321
291 294 297 298 299 299 300 302 302 303 303 305 306 307 307 308 315 318 320 322 322 323 322 321 322 323 325 324 322 322 323 322 322 321 323 325 326 325 324 326 321 322 321 321
290 295 295 295 299 301 299 299 301 302 302 304 308 307 308 311 316 320 319 321 322 322 323 322 321 322 323 323 322 324 322 321 320 319 320 323 325 322 296 302 302 299 304 315
295 299 299 300 301 302 299 300 302 303 303 303 307 309 308 313 318 318 320 320 321 322 323 323 321 322 323 323 322 324 324 324 320 316 319 319 323 324 322 311 300 299 300 300
298 300 298 299 298 303 301 303 304 304 303 304 306 310 309 310 316 320 322 321 322 323 322 322 321 322 323 322 322 323 325 307 320 319 319 319 320 321 322 323 323 323 302 306
297 298 299 301 303 303 304 303 302 302 302 303 306 308 310 308 311 317 321 324 323 323 322 321 321 322 323 322 323 323 323 319 321 320 319 316 320 320 320 321 323 324 324 303
297 298 299 299 299 300 301 302 302 303 303 303 304 306 309 310 311 317 322 323 321 321 321 321 322 323 322 323 323 323 322 309 313 320 319 318 319 320 320 320 320 321 322 322
297 296 298 298 298 299 299 300 301 302 305 304 305 307 309 308 310 313 320 324 325 324 324 324 324 324 322 323 324 322 321 318 310 319 319 319 319 319 320 321 321 320 321 319
300 300 300 300 300 300 300 301 301 301 303 306 307 307 306 307 308 313 318 325 326 325 326 326 325 324 322 323 324 323 322 321 317 319 320 319 322 321 321 320 321 320 321 318
303 302 302 302 302 302 302 302 302 303 303 305 306 306 307 307 310 312 317 324 325 324 326 327 307 316 325 320 319 323 322 321 318 320 321 314 319 321 321 321 321 321 322 320
303 304 303 303 304 303 303 304 305 304 304 305 306 306 307 308 310 311 314 321 327 328 330 328 321 325 326 318 306 323 322 322 320 320 320 320 321 322 323 312 321 321 322 322
303 303 303 302 302 303 303 305 305 304 305 305 305 305 307 308 309 310 313 319 326 324 319 312 324 327 327 317 314 323 322 322 321 321 320 320 321 321 322 324 322 323 323 323
303 303 303 303 302 302 303 303 305 305 305 305 306 306 307 308 309 312 316 315 322 300 321 328 323 309 317 299 322 322 322 323 323 321 320 320 321 321 322 323 322 322 322 323
303 303 303 301 302 302 303 303 302 303 303 305 305 306 306 307 309 310 310 318 321 310 324 325 302 288 288 323 326 323 321 325 324 322 321 320 320 321 322 323 323 323 323 323
303 303 302 303 303 302 300 303 302 302 302 305 307 308 307 307 309 314 319 309 298 300 318 320 301 290 291 325 326 324 324 325 324 323 323 303 322 322 322 323 322 323 323 318
303 304 303 302 302 302 302 301 301 300 300 301 304 307 309 310 308 310 314 315 300 303 319 300 290 290 316 326 325 323 324 323 321 320 321 321 321 321 322 323 324 323 323 322
303 303 303 303 302 304 302 302 298 298 298 298 299 301 307 311 311 310 311 305 312 306 317 323 326 326 326 328 327 325 323 319 318 317 315 319 319 320 320 321 320 319 321 319
303 296 303 302 301 301 302 300 298 296 297 296 296 299 302 309 311 309 304 313 313 315 318 323 324 319 326 325 324 322 320 313 303 312 312 314 316 317 316 316 316 315 314 314
Wind_Speed
14 8 5 21 22 23 21 16 8 6 21 20 13 8 3 9 11 15 17 17 17 17 15 15 14 12 11 9 8 8 7 7 6 6 6 8 7 7 8 8 7 7 7 7
11 11 7 6 8 21 25 22 18 14 18 13 12 2 5 12 14 15 17 17 18 18 17 16 15 13 11 10 9 9 8 8 7 8 7 8 8 7 7 8 7 7 7 7
8 4 6 7 2 7 15 20 20 21 23 13 14 10 5 13 17 17 19 20 21 20 18 15 15 13 12 11 10 10 9 9 8 8 8 9 8 8 7 6 6 6 6 6
3 4 15 7 10 12 16 14 14 11 11 12 14 18 17 13 18 19 17 19 18 17 16 15 15 14 12 11 10 10 10 10 9 9 8 9 8 7 6 6 6 6 6 6
3 3 8 4 12 8 5 9 14 12 13 14 15 15 10 7 10 16 23 20 18 17 17 15 15 14 13 12 11 11 11 11 10 10 9 8 8 7 6 7 7 4 5 7
1 3 4 9 16 7 5 6 16 14 14 16 16 7 4 18 14 10 12 18 19 18 17 16 15 14 14 13 12 12 12 11 11 11 10 9 9 7 5 6 7 5 5 6
1 3 3 14 15 13 6 6 14 14 14 13 10 10 22 19 14 11 12 15 19 18 17 16 16 15 15 14 13 12 11 11 10 9 9 10 9 6 7 7 7 6 6 5
2 2 5 16 3 6 5 7 11 14 14 14 15 17 16 16 14 9 14 17 19 18 17 16 17 16 16 15 13 12 12 12 11 9 7 8 9 8 8 9 8 7 7 6
4 4 5 8 3 5 7 9 11 13 16 15 16 16 16 15 13 9 15 16 16 18 18 16 17 17 18 16 14 13 12 12 12 10 8 8 10 9 8 8 7 7 6 6
2 5 11 5 3 9 10 11 13 14 15 15 16 17 16 14 12 9 13 17 16 17 19 19 18 18 17 17 16 14 13 12 11 11 10 8 7 8 8 8 7 7 7 7
3 8 7 6 9 13 15 13 16 16 16 15 18 17 17 14 13 10 11 14 17 18 18 20 20 19 17 17 17 15 13 12 11 10 12 10 8 7 8 9 9 8 7 7
3 4 6 11 11 17 14 17 18 18 20 18 17 18 20 15 13 10 11 14 16 17 15 18 20 20 19 18 18 16 14 12 11 10 10 10 9 7 7 3 8 3 5 8
6 15 13 17 14 9 16 17 18 17 18 18 18 17 19 18 13 15 13 15 17 20 20 18 20 21 20 20 19 17 15 12 11 11 11 11 10 10 10 3 3 7 7 8
11 10 9 12 14 17 14 17 17 16 16 16 16 17 18 19 13 14 11 13 16 18 18 18 19 21 21 21 20 18 16 14 12 12 11 11 11 11 10 10 10 9 7 8
7 9 11 16 18 15 13 15 16 15 17 18 16 17 17 21 20 16 13 11 13 16 16 18 19 19 20 21 19 19 15 13 13 12 12 12 11 11 11 11 10 10 8 5
11 11 11 12 15 16 15 15 15 15 16 17 17 18 18 18 19 17 12 10 12 16 20 20 19 19 20 20 19 16 16 16 14 13 12 12 11 11 11 11 11 10 10 10
12 12 13 14 15 16 16 15 15 15 16 16 17 19 18 19 18 18 16 11 10 13 14 16 17 18 20 20 19 14 14 13 15 13 13 13 12 12 11 10 10 10 11 10
12 14 14 15 17 16 16 15 15 16 16 16 17 18 17 16 17 17 17 15 8 7 12 13 14 17 19 20 18 14 13 13 14 15 13 14 13 13 12 11 11 11 10 9
11 12 14 14 14 14 15 16 15 17 16 15 15 16 17 16 15 16 16 14 8 5 3 6 11 14 16 18 17 13 13 14 14 13 13 13 12 14 13 13 13 12 11 10
14 14 16 14 13 14 15 16 17 16 15 15 14 14 16 16 14 14 15 14 8 7 6 6 8 14 15 15 17 14 14 14 14 13 14 14 13 13 14 15 15 14 12 11
13 14 14 15 15 15 15 15 15 15 15 15 13 13 15 16 16 13 11 10 6 8 8 5 4 2 8 12 14 13 12 11 12 12 12 12 13 14 13 13 14 13 12 11
13 13 14 15 15 14 15 15 12 12 15 15 15 13 14 15 15 12 9 10 7 9 5 2 3 5 3 3 12 12 13 9 8 9 10 11 11 12 13 13 13 12 13 12
10 12 13 14 14 14 15 14 13 14 14 15 15 14 12 11 10 10 9 3 4 5 6 4 4 3 2 3 4 6 9 13 10 11 8 9 9 9 10 12 12 11 12 12
8 10 12 13 12 13 14 15 16 14 14 15 15 14 12 10 9 8 8 9 10 6 6 6 7 9 9 9 9 8 8 12 11 10 9 3 4 6 9 10 11 10 10 9
10 11 12 15 14 11 14 13 12 10 12 12 15 15 16 11 10 10 8 8 7 6 7 8 8 10 10 9 9 9 8 7 6 8 7 8 5 6 7 9 10 9 8 8
8 7 9 13 11 9 9 11 11 10 9 9 9 11 14 11 10 10 10 9 11 9 8 8 6 7 7 9 11 10 8 5 2 3 4 4 2 2 6 9 8 11 8 8
6 4 7 8 8 11 10 10 12 12 10 10 13 13 13 14 11 10 9 8 8 9 7 8 6 6 5 4 4 7 6 7 7 5 4 5 2 2 8 8 9 7 6 6
Wind_Direction
268 279 302 173 197 198 204 218 212 205 228 245 271 318 70 155 161 164 157 165 168 169 173 170 170 173 165 161 161 156 148 152 134 125 117 124 137 146 139 130 130 132 136 132
262 243 252 144 162 203 207 223 235 250 264 252 287 345 166 163 181 179 163 165 170 175 176 172 172 176 165 163 157 158 155 152 141 131 129 129 132 134 133 131 137 132 136 137
213 346 226 237 291 200 208 222 221 223 241 279 287 288 230 184 188 189 169 170 176 179 179 174 175 174 170 166 157 160 162 157 151 143 138 135 136 136 137 138 143 143 134 135
267 257 202 87 45 14 106 50 10 307 336 328 316 301 299 218 194 185 171 172 177 178 179 176 173 175 167 165 164 163 167 164 160 154 143 139 143 137 141 143 147 127 126 131
239 217 112 54 19 349 2 55 19 353 341 329 321 300 268 238 208 220 177 176 176 175 175 171 174 174 167 170 168 169 171 171 168 161 155 153 147 140 138 145 141 138 116 128
266 244 159 4 332 290 182 114 6 359 348 338 336 256 123 355 340 264 209 168 168 171 173 172 177 172 168 172 174 177 176 177 174 173 171 170 157 147 136 142 138 141 125 130
191 88 100 354 355 138 205 29 343 347 344 339 323 305 308 316 313 277 197 184 164 166 176 177 171 173 176 175 183 180 175 176 175 174 177 174 155 151 145 140 133 131 125 122
173 140 128 357 9 64 0 342 338 341 343 335 321 314 314 313 301 278 193 178 175 168 176 175 173 176 181 183 184 176 172 175 175 174 176 167 164 150 146 143 137 136 138 140
10 67 346 341 11 48 2 340 344 336 336 336 330 332 326 317 307 284 197 182 189 172 173 175 178 181 184 187 179 174 174 175 176 174 171 173 170 160 154 159 153 155 156 149
264 10 332 313 69 13 355 342 342 340 333 335 335 335 333 324 317 297 204 188 180 188 176 177 182 187 190 179 177 177 178 180 176 175 174 174 177 176 172 173 170 170 169 160
43 360 351 132 13 349 337 344 343 338 338 334 336 335 337 326 318 310 221 197 180 194 187 182 179 187 184 183 178 179 181 178 180 184 184 175 187 182 189 189 184 180 186 178
33 308 277 297 326 329 335 333 339 335 335 333 335 337 337 332 323 308 253 200 192 191 193 188 184 184 182 183 182 178 183 181 181 184 186 188 181 176 54 2 203 188 170 187
319 311 295 294 303 331 329 326 332 334 331 326 328 338 337 338 335 317 281 211 199 194 193 189 186 186 185 182 183 184 186 184 182 186 186 189 191 195 195 146 149 201 183 192
314 332 311 306 316 314 316 323 324 326 328 331 329 329 337 339 344 339 314 243 217 199 188 185 195 189 184 183 182 185 186 173 185 194 192 193 195 198 204 202 202 200 202 206
331 318 299 301 303 314 322 326 324 325 330 331 332 330 332 337 339 338 324 294 229 206 192 187 192 200 185 183 185 184 182 184 190 189 194 197 198 205 207 210 210 209 178 188
315 310 303 308 312 316 319 321 322 319 322 325 325 328 328 329 328 327 338 327 220 203 194 191 192 192 189 184 184 185 190 183 183 185 185 195 202 208 211 213 213 214 206 208
306 322 324 316 314 315 319 313 307 308 312 314 318 321 321 326 324 329 341 347 305 252 211 199 196 181 185 185 182 189 189 180 187 184 191 198 201 206 208 210 214 215 218 210
278 278 283 282 289 302 309 307 305 300 298 307 310 313 313 321 321 321 326 324 323 275 229 208 192 185 186 183 185 186 191 187 188 197 190 195 200 202 208 211 215 217 219 203
337 316 303 294 295 293 298 299 298 295 291 294 300 305 308 306 307 315 320 321 307 299 318 249 191 176 183 178 177 191 189 189 192 197 199 197 189 198 204 211 218 220 222 210
321 328 347 331 319 315 305 297 290 286 287 286 291 296 302 303 307 316 321 318 354 325 321 333 208 190 184 179 175 187 191 195 193 197 193 197 209 205 203 205 210 215 215 214
325 328 332 350 341 325 321 314 295 288 288 285 282 283 290 299 296 305 310 319 354 347 307 310 352 175 198 177 181 186 182 190 199 192 199 205 192 207 216 213 209 215 214 214
330 332 332 343 341 338 336 329 316 287 283 282 280 274 278 288 291 286 282 275 320 343 338 231 267 284 290 241 192 185 166 177 188 212 199 199 222 209 205 218 214 211 215 217
324 336 341 341 339 328 333 340 336 320 295 286 279 276 270 273 292 285 279 245 289 347 305 244 248 239 257 226 220 210 194 132 220 207 195 196 209 231 246 226 207 207 207 211
321 335 333 333 339 345 342 337 330 322 322 301 287 277 269 268 270 270 260 269 262 262 263 229 216 230 218 155 156 147 137 151 173 169 155 160 219 226 234 254 243 200 210 202
334 337 346 353 343 343 333 332 317 322 318 329 315 293 271 252 248 267 270 282 269 263 268 219 210 227 238 193 165 133 145 158 161 201 153 134 177 241 256 244 251 223 198 194
336 331 330 333 333 328 316 328 337 334 327 314 309 300 287 264 249 246 260 269 281 273 259 263 239 256 220 197 169 152 145 136 102 50 26 12 77 232 252 240 226 229 186 179
326 323 334 333 335 329 332 335 341 334 327 318 306 297 280 270 250 243 253 262 260 270 270 265 244 234 251 207 157 125 109 95 79 70 81 67 9 236 225 220 218 185 153 150